Pompano Beach, FL (33064)

1:30 PM EST on February 07, 2016 (GMT -0500)
Lighthouse Point Estates | | Change Station
CLOSE
Current Station
Personal Weather Station
Location: Lighthouse Point, FL
Elevation: 4 ft
Nearby Weather Stations

Elev 4 ft 26.27 °N, 80.10 °W | Updated 20 seconds ago

Mostly Cloudy
Mostly Cloudy
62.2 °F
Feels Like 62.2 °F
N
6.0
Wind Variable Wind from NNW
Gusts 9.0 mph

Today
High -- | Low -- °F
--% Chance of Precip.
Yesterday
High -- | Low -- °F
Precip. -- in
Pressure 30.02 in
Visibility 10.0 miles
Clouds Scattered Clouds 2300 ft
Mostly Cloudy 14000 ft
Dew Point 49 °F
Humidity 63%
Rainfall 0.11 in
Snow Depth Not available.
7:02 AM 6:07 PM
Waning Crescent, 1% visible
METAR KPMP 071753Z 30023G29KT 10SM SCT023 BKN140 16/08 A3002 RMK AO2 PK WND 30030/1731 SLP165 T01560083 10156 20106 58007
Pressure 30.02 in
Visibility 10.0 miles
Clouds Scattered Clouds 2300 ft
Mostly Cloudy 14000 ft
Dew Point 49 °F
Humidity 63%
Rainfall 0.11 in
Snow Depth Not available.
7:02 AM 6:07 PM
Waning Crescent, 1% visible
METAR KPMP 071753Z 30023G29KT 10SM SCT023 BKN140 16/08 A3002 RMK AO2 PK WND 30030/1731 SLP165 T01560083 10156 20106 58007

10-Day Weather Forecast

Almanac

Astronomy

Feb. 07, 2016 Rise Set
Actual Time
Civil Twilight
Nautical Twilight
Astronomical Twilight
Moon
Length of Visible Light
Length of Day
Tomorrow will be .
, % of the Moon is Illuminated

Today's Extremes

State Highs State Lows

Community

WunderPhotos

Upload Photos

1,891,276 photos uploaded!

WunderBlog® & News

Nearby

Air Quality

  Air Quality AQ Index Pollutant
Not available.

Snow Depth

Station Depth Elevation

Earthquake Activity

City Distance Mag. Time & Date
Minimum magnitude displayed is 2.5.

Coastal Water Temperatures

Place Temperature

Stations

Nearby Weather Stations

Station Location Temp. Windchill Dew Point Humidity Wind Precip. Elev Updated Type
                   

Watches & Warnings

There are currently no watches in effect.